Date String (YYYY-MM-DD hh:mm:ss) UTC,Instrument flags,Ambient pressure (hPa),Sample flow (lpm),Bypass flow (lpm),Sample temperature (°C),Ambient temperature (°C),ASC tube jacket temperature (°C),LED temperature (°C),Box temperature (°C),Sample RH (%),Span deviation,Mass concentration (μg/m³),Mass concentration (μg/m³),Mass concentration (μg/m³)
DateTimeUTC,F1_M11,P_M11,Q1_M11,Q2_M11,T1_M11,T2_M11,T3_M11,T4_M11,T5_M11,U1_M11,ZSPAN_M11,X0_M11,X2_M11,X1_M11
2022-05-23 22:00:00,,0824.3,4.99,0.00,29.9,28.8,00.0,38.9,31.6,13.7,0000.0,0004.26,0001.86,0001.46
2022-05-23 22:01:00,,0824.3,5.00,0.00,29.9,28.8,00.0,38.9,31.6,13.7,0000.0,0004.89,0001.84,0001.46
2022-05-23 22:02:00,,0824.3,5.00,0.00,29.9,28.8,00.0,38.9,31.6,13.5,0000.0,0004.84,0001.82,0001.46
2022-05-23 22:03:00,,0824.4,5.02,0.00,29.9,28.8,00.0,38.9,31.6,13.5,0000.0,0004.88,0001.84,0001.46
2022-05-23 22:04:00,,0824.4,4.99,0.00,29.9,28.8,00.0,38.9,31.6,13.8,0000.0,0004.95,0001.86,0001.47
2022-05-23 22:05:00,,0824.4,4.99,0.00,29.9,28.8,00.0,38.9,31.6,13.5,0000.0,0005.05,0001.90,0001.46
2022-05-23 22:06:00,,0824.5,4.99,0.00,29.9,28.8,00.0,38.9,31.6,13.7,0000.0,0005.18,0001.91,0001.47
2022-05-23 22:07:00,,0824.6,5.00,0.00,29.9,28.8,00.0,38.9,31.7,13.7,0000.0,0005.18,0001.90,0001.47
2022-05-23 22:08:00,,0824.5,5.00,0.00,29.9,28.9,00.0,38.9,31.7,13.8,0000.0,0005.71,0001.86,0001.47
2022-05-23 22:09:00,,0824.4,5.00,0.00,29.9,28.9,00.0,38.9,31.7,14.0,0000.0,0004.30,0001.85,0001.47
2022-05-23 22:10:00,,0824.5,4.99,0.00,29.9,28.9,00.0,38.9,31.7,13.8,0000.0,0004.35,0001.86,0001.47
2022-05-23 22:11:00,,0824.5,5.00,0.00,29.9,28.9,00.0,38.9,31.7,14.1,0000.0,0004.30,0001.82,0001.45
2022-05-23 22:12:00,,0824.5,5.01,0.00,29.9,28.9,00.0,38.9,31.7,14.0,0000.0,0003.59,0001.81,0001.44
2022-05-23 22:13:00,,0824.6,4.99,0.00,29.9,28.9,00.0,38.9,31.7,14.1,0000.0,0003.63,0001.83,0001.43
2022-05-23 22:14:00,,0824.6,5.00,0.00,30.0,28.9,00.0,38.9,31.7,14.0,0000.0,0003.81,0001.81,0001.42
2022-05-23 22:15:00,,0824.6,4.99,0.00,30.0,28.9,00.0,38.9,31.7,14.2,0000.0,0004.19,0001.80,0001.41
2022-05-23 22:16:00,,0824.7,4.99,0.00,30.0,28.9,00.0,38.9,31.7,14.1,0000.0,0003.94,0001.70,0001.39
2022-05-23 22:17:00,,0824.6,5.00,0.00,30.0,28.9,00.0,38.9,31.7,13.8,0000.0,0003.80,0001.68,0001.38
2022-05-23 22:18:00,,0824.6,5.00,0.00,30.0,29.0,00.0,38.9,31.8,13.9,0000.0,0003.79,0001.66,0001.37
2022-05-23 22:19:00,,0824.6,5.00,0.00,30.0,29.0,00.0,38.9,31.8,13.9,0000.0,0003.07,0001.69,0001.37
2022-05-23 22:20:00,,0824.6,5.01,0.00,30.0,29.0,00.0,38.9,31.8,13.8,0000.0,0004.58,0001.71,0001.37
2022-05-23 22:21:00,,0824.6,5.00,0.00,30.0,29.0,00.0,38.9,31.8,13.9,0000.0,0005.11,0001.74,0001.38
2022-05-23 22:22:00,,0824.6,5.00,0.00,30.0,29.0,00.0,38.9,31.8,13.7,0000.0,0005.14,0001.75,0001.38
2022-05-23 22:23:00,,0824.6,5.00,0.00,30.0,29.0,00.0,38.9,31.8,13.7,0000.0,0005.12,0001.73,0001.38
2022-05-23 22:24:00,,0824.6,5.00,0.00,30.0,29.0,00.0,38.9,31.7,13.5,0000.0,0005.17,0001.74,0001.38
2022-05-23 22:25:00,,0824.6,5.00,0.00,30.0,29.0,00.0,38.9,31.7,13.6,0000.0,0004.94,0001.74,0001.37
2022-05-23 22:26:00,,0824.6,5.01,0.00,30.0,29.0,00.0,38.9,31.8,13.2,0000.0,0004.70,0001.75,0001.36
2022-05-23 22:27:00,,0824.6,5.00,0.00,30.0,29.0,00.0,38.9,31.8,12.9,0000.0,0004.83,0001.77,0001.35
2022-05-23 22:28:00,,0824.6,4.99,0.00,30.0,29.0,00.0,38.9,31.8,12.5,0000.0,0004.89,0001.79,0001.34
2022-05-23 22:29:00,,0824.6,5.00,0.00,30.0,29.0,00.0,38.9,31.8,12.6,0000.0,0004.90,0001.80,0001.33
2022-05-23 22:30:00,,0824.6,5.00,0.00,30.0,29.0,00.0,38.9,31.8,12.5,0000.0,0004.86,0001.77,0001.32
2022-05-23 22:31:00,,0824.6,5.01,0.00,30.0,29.0,00.0,38.9,31.8,12.6,0000.0,0003.25,0001.74,0001.29
2022-05-23 22:32:00,,0824.6,5.00,0.00,30.0,29.0,00.0,38.9,31.8,13.0,0000.0,0002.67,0001.68,0001.26
2022-05-23 22:33:00,,0824.6,5.00,0.00,30.0,29.0,00.0,39.0,31.8,13.3,0000.0,0002.64,0001.67,0001.23
2022-05-23 22:34:00,,0824.5,4.99,0.00,30.0,29.0,00.0,39.0,31.8,13.0,0000.0,0002.68,0001.68,0001.22
2022-05-23 22:35:00,,0824.5,4.99,0.00,30.0,29.0,00.0,39.0,31.8,12.9,0000.0,0003.19,0001.67,0001.20
2022-05-23 22:36:00,,0824.6,5.01,0.00,30.0,29.0,00.0,39.0,31.8,13.3,0000.0,0004.25,0001.62,0001.17
2022-05-23 22:37:00,,0824.6,5.01,0.00,30.0,29.0,00.0,39.0,31.7,13.5,0000.0,0004.48,0001.56,0001.14
2022-05-23 22:38:00,,0824.6,5.01,0.00,30.0,29.0,00.0,39.0,31.7,13.2,0000.0,0004.37,0001.51,0001.13
2022-05-23 22:39:00,,0824.6,5.00,0.00,30.0,29.0,00.0,39.0,31.8,12.9,0000.0,0004.33,0001.49,0001.11
2022-05-23 22:40:00,,0824.6,4.99,0.00,30.0,29.0,00.0,39.0,31.8,12.7,0000.0,0004.29,0001.46,0001.09
2022-05-23 22:41:00,,0824.6,5.01,0.00,30.0,29.0,00.0,39.0,31.8,13.3,0000.0,0004.31,0001.47,0001.08
2022-05-23 22:42:00,,0824.6,4.99,0.00,30.0,29.0,00.0,39.0,31.8,12.8,0000.0,0004.39,0001.47,0001.07
2022-05-23 22:43:00,,0824.5,5.00,0.00,30.0,29.0,00.0,39.0,31.8,13.1,0000.0,0004.44,0001.47,0001.07
2022-05-23 22:44:00,,0824.5,5.00,0.00,30.0,29.0,00.0,39.0,31.8,13.3,0000.0,0004.52,0001.48,0001.07
2022-05-23 22:45:00,,0824.5,5.01,0.00,30.0,29.0,00.0,39.0,31.8,12.7,0000.0,0004.46,0001.46,0001.07
2022-05-23 22:46:00,,0824.5,5.00,0.00,30.0,29.0,00.0,39.0,31.7,13.0,0000.0,0003.91,0001.40,0001.05
2022-05-23 22:47:00,,0824.4,4.99,0.00,30.0,29.0,00.0,39.0,31.7,13.2,0000.0,0002.89,0001.37,0001.05
2022-05-23 22:48:00,,0824.4,4.99,0.00,30.0,29.0,00.0,39.0,31.7,12.9,0000.0,0002.24,0001.38,0001.06
2022-05-23 22:49:00,,0824.5,5.00,0.00,30.0,29.0,00.0,39.0,31.8,12.9,0000.0,0002.18,0001.39,0001.06
2022-05-23 22:50:00,,0824.4,5.01,0.00,30.0,29.0,00.0,39.0,31.8,13.0,0000.0,0002.29,0001.38,0001.06
2022-05-23 22:51:00,,0824.4,5.01,0.00,30.0,29.0,00.0,39.0,31.8,12.9,0000.0,0002.52,0001.37,0001.06
2022-05-23 22:52:00,,0824.4,4.99,0.00,30.0,29.0,00.0,39.0,31.7,12.8,0000.0,0002.53,0001.35,0001.05
2022-05-23 22:53:00,,0824.4,4.99,0.00,30.0,29.0,00.0,39.0,31.8,13.1,0000.0,0002.57,0001.37,0001.05
2022-05-23 22:54:00,,0824.5,5.01,0.00,30.0,29.0,00.0,39.0,31.8,13.3,0000.0,0002.94,0001.39,0001.05
2022-05-23 22:55:00,,0824.5,5.00,0.00,30.0,29.0,00.0,39.0,31.8,12.9,0000.0,0002.87,0001.37,0001.04
2022-05-23 22:56:00,,0824.5,4.99,0.00,30.0,29.0,00.0,39.0,31.8,13.1,0000.0,0002.94,0001.38,0001.05
2022-05-23 22:57:00,,0824.5,5.00,0.00,30.0,29.0,00.0,39.0,31.7,13.1,0000.0,0003.00,0001.40,0001.06
2022-05-23 22:58:00,,0824.4,4.99,0.00,30.0,29.0,00.0,39.0,31.8,13.6,0000.0,0003.24,0001.43,0001.08
2022-05-23 22:59:00,,0824.4,5.01,0.00,30.0,29.0,00.0,39.0,31.8,13.4,0000.0,0003.25,0001.44,0001.08
